Slidell, LA

10:56 PM CDT on July 23, 2017 (GMT -0500)
Slidell

Weather History for KASD - December, 2012

Change the Weather History Date:

Saturday, December 8, 2012

  Actual Average (KNEW) Record (KNEW)
Temperature  
Mean Temperature 66 °F -  
Max Temperature 75 °F 64 °F 82 °F (1978)
Min Temperature 57 °F 50 °F 27 °F (1984)
Cooling Degree Days 1    
Growing Degree Days 16 (Base 50)    
Moisture  
Dew Point 62 °F    
Average Humidity 92    
Maximum Humidity 100    
Minimum Humidity 51    
Precipitation  
Precipitation 0.00 in - - ()
Sea Level Pressure  
Sea Level Pressure 29.96 in    
Wind  
Wind Speed 1 mph (South)    
Max Wind Speed 5 mph    
Max Gust Speed -    
Visibility 7 miles    
Events Fog , Rain    
Averages and records for this station are not official NWS values.
T = Trace of Precipitation, MM = Missing Value Source: NWS Daily Summary

Daily Weather History Graph

Daily Weather History Graph

Search for Another Location

Airport or City:

Trip Planner

Search our weather history database for the weather conditions in past years. The results will help you decide how hot, cold, wet, or windy it might be!

Date:

Astronomy

Dec. 08, 2012 Rise Set
Actual Time 6:44 AM CST 4:58 PM CST
Civil Twilight 6:17 AM CST 5:25 PM CST
Nautical Twilight 5:47 AM CST 5:55 PM CST
Astronomical Twilight 5:18 AM CST 6:24 PM CST
Moon 1:26 AM CST (12/8) 1:13 PM CST (12/8)
Length of Visible Light 11h 07m
Length of Day
10h 14m
Waning Crescent, 28% of the Moon is Illuminated
Dec 8
Waning Crescent
Dec 13
New
Dec 19
First Quarter
Dec 28
Full
Jan 4
Last Quarter

Hourly Weather History & Observations

Time (CST) Temp. Dew Point Humidity Pressure Visibility Wind Dir Wind Speed Gust Speed Precip Events Conditions
12:36 AM 66.2 °F 66.2 °F 100% 29.92 in 5.0 mi Calm Calm - N/A   Overcast
12:53 AM 66.9 °F 66.9 °F 100% 29.92 in 5.0 mi Calm Calm - N/A   Overcast
1:53 AM 66.9 °F 66.9 °F 100% 29.91 in 6.0 mi Calm Calm - N/A   Overcast
2:31 AM 68.0 °F 66.2 °F 94% 29.92 in 9.0 mi Calm Calm - N/A   Overcast
2:53 AM 66.9 °F 66.9 °F 100% 29.92 in 6.0 mi Calm Calm - N/A   Overcast
3:05 AM 66.2 °F 66.2 °F 100% 29.91 in 7.0 mi Calm Calm - N/A   Overcast
3:23 AM 66.2 °F 66.2 °F 100% 29.92 in 6.0 mi Calm Calm - N/A   Overcast
3:53 AM 66.9 °F 66.9 °F 100% 29.93 in 5.0 mi Calm Calm - 0.00 in Rain Light Rain
4:02 AM 66.2 °F 66.2 °F 100% 29.93 in 7.0 mi Calm Calm - 0.00 in Rain Light Rain
5:01 AM 66.2 °F 66.2 °F 100% 29.93 in 6.0 mi Calm Calm - N/A   Overcast
5:32 AM 66.2 °F 66.2 °F 100% 29.94 in 4.0 mi Calm Calm - N/A   Overcast
5:39 AM 66.2 °F 66.2 °F 100% 29.95 in 3.0 mi Calm Calm - N/A   Overcast
5:48 AM 66.2 °F 66.2 °F 100% 29.95 in 5.0 mi Calm Calm - N/A   Overcast
5:53 AM 66.0 °F 66.0 °F 100% 29.95 in 7.0 mi Calm Calm - N/A   Overcast
6:53 AM 64.9 °F 64.9 °F 100% 29.97 in 4.0 mi Calm Calm - N/A   Overcast
6:57 AM 64.4 °F 64.4 °F 100% 29.97 in 0.8 mi Calm Calm - N/A   Overcast
7:08 AM 64.4 °F 64.4 °F 100% 29.97 in 0.5 mi Calm Calm - N/A Fog Fog
7:53 AM 64.9 °F 64.9 °F 100% 29.98 in 0.2 mi Calm Calm - N/A Fog Fog
8:42 AM 66.2 °F 66.2 °F 100% 29.99 in 2.0 mi Calm Calm - N/A   Overcast
8:51 AM 64.4 °F 64.4 °F 100% 29.99 in 5.0 mi Calm Calm - N/A   Overcast
8:53 AM 64.9 °F 64.9 °F 100% 29.99 in 7.0 mi Calm Calm - N/A   Overcast
9:02 AM 64.4 °F 64.4 °F 100% 29.99 in 10.0 mi Calm Calm - N/A   Overcast
9:22 AM 66.2 °F 64.4 °F 94% 30.00 in 10.0 mi Calm Calm - N/A   Overcast
9:50 AM 68.0 °F 64.4 °F 88% 30.00 in 10.0 mi South 3.5 mph - N/A   Partly Cloudy
9:53 AM 68.0 °F 64.9 °F 90% 30.00 in 10.0 mi SSE 3.5 mph - N/A   Partly Cloudy
10:53 AM 70.0 °F 63.0 °F 78% 29.99 in 10.0 mi South 3.5 mph - N/A   Partly Cloudy
11:53 AM 73.0 °F 63.0 °F 71% 29.96 in 10.0 mi SE 4.6 mph - N/A   Partly Cloudy
12:16 PM 71.6 °F 62.6 °F 73% 29.95 in 10.0 mi SW 4.6 mph - N/A   Mostly Cloudy
12:41 PM 73.4 °F 62.6 °F 69% 29.94 in 10.0 mi South 4.6 mph - N/A   Partly Cloudy
12:53 PM 73.9 °F 60.1 °F 62% 29.94 in 10.0 mi South 4.6 mph - N/A   Partly Cloudy
1:53 PM 75.0 °F 59.0 °F 57% 29.92 in 10.0 mi SSE 4.6 mph - N/A   Clear
2:53 PM 75.0 °F 55.9 °F 51% 29.92 in 10.0 mi South 4.6 mph - N/A   Clear
4:53 PM 68.0 °F 59.0 °F 73% 29.94 in 10.0 mi Calm Calm - N/A   Clear
5:53 PM 63.0 °F 59.0 °F 87% 29.95 in 10.0 mi Calm Calm - N/A   Clear
6:53 PM 61.0 °F 57.9 °F 90% 29.97 in 10.0 mi Calm Calm - N/A   Clear
7:53 PM 61.0 °F 59.0 °F 93% 29.99 in 10.0 mi Calm Calm - N/A   Clear
9:53 PM 59.0 °F 57.0 °F 93% 29.99 in 10.0 mi Calm Calm - N/A   Clear
10:53 PM 57.9 °F 55.9 °F 93% 29.99 in 10.0 mi Calm Calm - N/A   Clear
11:17 PM 57.2 °F 55.4 °F 94% 29.99 in 10.0 mi Calm Calm - N/A   Scattered Clouds
11:21 PM 57.2 °F 57.2 °F 100% 29.98 in 2.0 mi Calm Calm - N/A   Mostly Cloudy
11:25 PM 57.2 °F 55.4 °F 94% 29.98 in 0.8 mi Calm Calm - N/A   Mist
11:33 PM 57.2 °F 57.2 °F 100% 29.98 in 2.5 mi Calm Calm - N/A   Mostly Cloudy
11:40 PM 57.2 °F 57.2 °F 100% 29.98 in 4.0 mi Calm Calm - N/A   Mostly Cloudy
11:51 PM 57.2 °F 57.2 °F 100% 29.98 in 5.0 mi Calm Calm - N/A   Scattered Clouds
11:53 PM 57.9 °F 57.0 °F 97% 29.98 in 6.0 mi Calm Calm - N/A   Partly Cloudy